Weather History for Imperial, NE

Change the Weather History Date:

Monday, December 31, 2012

  Actual Average Record
Temperature  
Mean Temperature 20 °F 28 °F  
Max Temperature 25 °F 40 °F 75 °F (1904)
Min Temperature 14 °F 15 °F -20 °F (1968)
Degree Days  
Heating Degree Days 45 37  
Month to date heating degree days 1156 1137  
Cooling Degree Days 0 0  
Month to date cooling degree days 0 0  
Year to date cooling degree days 1382 963  
Moisture  
Dew Point 18 °F    
Average Humidity 88    
Maximum Humidity 96    
Minimum Humidity 80    
Precipitation  
Precipitation 0.02 in 0.01 in 0.60 in (1931)
Sea Level Pressure  
Sea Level Pressure 30.13 in    
Wind  
Wind Speed 5 mph (NNE)    
Max Wind Speed 14 mph    
Max Gust Speed 16 mph    
Visibility 4 miles    
Events Snow    
T = Trace of Precipitation, MM = Missing Value Source: NWS Daily Summary

Daily Weather History Graph

Daily Weather History Graph

Search for Another Location

Airport:

Trip Planner

Search our weather history database for the weather conditions in past years. The results will help you decide how hot, cold, wet, or windy it might be!

Date:

Astronomy

Dec. 31, 2012 Rise Set
Actual Time 7:09 AM MST 4:29 PM MST
Civil Twilight 6:39 AM MST 5:00 PM MST
Nautical Twilight 6:04 AM MST 5:34 PM MST
Astronomical Twilight 5:31 AM MST 6:08 PM MST
Moon 8:03 PM MST (12/31) 8:51 AM MST (12/31)
Length of Visible Light 10h 21m
Length of Day
9h 20m
Waning Gibbous, 90% of the Moon is Illuminated
Dec 31
Waning Gibbous
Jan 4
Last Quarter
Jan 11
New
Jan 18
First Quarter
Jan 26
Full

Hourly Weather History & Observations

Time (MST) Temp. Windchill Dew Point Humidity Pressure Visibility Wind Dir Wind Speed Gust Speed Precip Events Conditions
12:53 AM 14.0 °F 1.2 °F 10.0 °F 84% 30.18 in 10.0 mi North 10.4 mph - N/A   Clear
1:10 AM 15.8 °F 3.4 °F 10.4 °F 79% 30.05 in 10.0 mi North 10.4 mph - N/A   Scattered Clouds
1:20 AM 15.8 °F 2.7 °F 12.2 °F 86% 30.06 in 10.0 mi North 11.5 mph - N/A   Mostly Cloudy
1:53 AM 16.0 °F 6.3 °F 12.9 °F 88% 30.19 in 10.0 mi NNW 6.9 mph - N/A   Overcast
2:53 AM 18.0 °F 12.7 °F 15.1 °F 88% 30.17 in 10.0 mi NNE 3.5 mph - N/A   Overcast
3:53 AM 21.0 °F 13.4 °F 18.0 °F 88% 30.16 in 10.0 mi NE 5.8 mph - N/A   Overcast
4:53 AM 21.9 °F 12.5 °F 19.0 °F 89% 30.15 in 10.0 mi NNE 8.1 mph - N/A   Overcast
5:53 AM 21.9 °F 11.7 °F 19.0 °F 89% 30.15 in 10.0 mi NNE 9.2 mph - N/A   Overcast
6:53 AM 21.9 °F 13.4 °F 19.9 °F 92% 30.15 in 8.0 mi NE 6.9 mph - N/A   Overcast
7:39 AM 21.2 °F 9.5 °F 19.4 °F 93% 30.03 in 5.0 mi NE 11.5 mph 26.5 mph N/A   Overcast
7:53 AM 21.9 °F 11.7 °F 19.9 °F 92% 30.16 in 7.0 mi NE 9.2 mph - N/A   Overcast
8:53 AM 21.9 °F 13.4 °F 19.9 °F 92% 30.18 in 4.0 mi ENE 6.9 mph - N/A   Overcast
9:53 AM 21.9 °F 14.5 °F 19.0 °F 89% 30.22 in 10.0 mi ENE 5.8 mph - N/A   Overcast
10:53 AM 21.9 °F 14.5 °F 19.9 °F 92% 30.21 in 1.8 mi NNE 5.8 mph - N/A   Overcast
11:53 AM 23.0 °F 17.0 °F 21.0 °F 92% 30.19 in 2.0 mi NNE 4.6 mph - N/A   Overcast
12:11 PM 23.0 °F 15.8 °F 21.2 °F 93% 30.04 in 4.0 mi North 5.8 mph - N/A   Overcast
12:53 PM 24.1 °F 15.2 °F 21.0 °F 88% 30.17 in 10.0 mi NNE 8.1 mph - N/A   Overcast
1:24 PM 24.8 °F 19.1 °F 21.2 °F 86% 30.02 in 6.0 mi NNE 4.6 mph - 0.00 in Snow Light Snow
1:38 PM 24.8 °F 17.9 °F 19.4 °F 80% 30.02 in 2.0 mi NNE 5.8 mph - 0.00 in Snow Light Snow
1:46 PM 24.8 °F 17.9 °F 19.4 °F 80% 30.02 in 1.8 mi NNE 5.8 mph - 0.00 in Snow Light Snow
1:53 PM 25.0 °F 18.1 °F 19.9 °F 81% 30.15 in 1.2 mi NNE 5.8 mph - 0.00 in Snow Light Snow
2:10 PM 24.8 °F 19.1 °F 19.4 °F 80% 30.03 in 1.0 mi NNE 4.6 mph - 0.00 in Snow Light Snow
2:38 PM 24.8 °F 17.9 °F 19.4 °F 80% 30.03 in 1.5 mi NNE 5.8 mph - 0.00 in Snow Light Snow
2:53 PM 25.0 °F 19.3 °F 19.9 °F 81% 30.16 in 1.8 mi NNE 4.6 mph - 0.00 in Snow Light Snow
3:41 PM 24.8 °F 19.1 °F 19.4 °F 80% 30.05 in 2.0 mi NNE 4.6 mph - 0.00 in Snow Light Snow
3:53 PM 24.1 °F 18.2 °F 19.9 °F 84% 30.17 in 2.5 mi NE 4.6 mph - 0.00 in Snow Light Snow
4:11 PM 23.0 °F - 19.4 °F 86% 30.06 in 3.0 mi Calm Calm - 0.01 in   Overcast
4:26 PM 23.0 °F 18.4 °F 19.4 °F 86% 30.06 in 2.5 mi NE 3.5 mph - 0.01 in   Overcast
4:49 PM 21.2 °F 16.4 °F 19.4 °F 93% 30.06 in 4.0 mi NNE 3.5 mph - 0.01 in   Overcast
4:53 PM 21.9 °F 17.2 °F 19.0 °F 89% 30.18 in 5.0 mi NNE 3.5 mph - 0.01 in   Overcast
5:32 PM 21.2 °F 13.6 °F 19.4 °F 93% 30.06 in 3.0 mi NE 5.8 mph - N/A Snow Light Snow
5:53 PM 21.0 °F 14.6 °F 19.0 °F 92% 30.19 in 3.0 mi NE 4.6 mph - 0.00 in Snow Light Snow
6:39 PM 21.2 °F - 19.4 °F 93% 30.08 in 2.5 mi Calm Calm - 0.00 in Snow Light Snow
6:53 PM 21.0 °F - 19.0 °F 92% 30.20 in 2.5 mi Calm Calm - 0.00 in Snow Light Snow
7:13 PM 21.2 °F - 19.4 °F 93% 30.09 in 1.8 mi Calm Calm - 0.00 in Snow Light Snow
7:35 PM 21.2 °F - 19.4 °F 93% 30.09 in 2.0 mi Calm Calm - 0.00 in Snow Light Snow
7:44 PM 21.2 °F - 19.4 °F 93% 30.09 in 2.0 mi Calm Calm - 0.00 in Snow Light Snow
7:53 PM 21.0 °F - 18.0 °F 88% 30.22 in 2.0 mi Calm Calm - 0.00 in Snow Light Snow
8:34 PM 21.2 °F - 19.4 °F 93% 30.10 in 3.0 mi Calm Calm - 0.00 in   Overcast
8:53 PM 19.9 °F - 19.0 °F 96% 30.23 in 3.0 mi Calm Calm - 0.00 in   Overcast
9:17 PM 19.4 °F - 17.6 °F 93% 30.11 in 1.8 mi Calm Calm - 0.00 in Snow Light Snow
9:29 PM 19.4 °F - 17.6 °F 93% 30.11 in 2.5 mi Calm Calm - 0.00 in Snow Light Snow
9:53 PM 19.9 °F 13.4 °F 18.0 °F 92% 30.24 in 1.8 mi South 4.6 mph - 0.00 in Snow Light Snow
10:06 PM 19.4 °F 12.8 °F 17.6 °F 93% 30.12 in 2.5 mi South 4.6 mph - 0.00 in Snow Light Snow
10:27 PM 19.4 °F 14.3 °F 17.6 °F 93% 30.13 in 4.0 mi South 3.5 mph - 0.00 in   Overcast
10:53 PM 19.9 °F 12.1 °F 18.0 °F 92% 30.25 in 2.5 mi South 5.8 mph - 0.00 in Snow Light Snow
11:13 PM 19.4 °F 12.8 °F 17.6 °F 93% 30.12 in 3.0 mi SSW 4.6 mph - 0.01 in Snow Light Snow
11:21 PM 19.4 °F 11.5 °F 17.6 °F 93% 30.12 in 2.5 mi SSW 5.8 mph - 0.01 in Snow Light Snow
11:39 PM 19.4 °F 12.8 °F 17.6 °F 93% 30.12 in 3.0 mi SW 4.6 mph - 0.01 in   Overcast
11:53 PM 19.0 °F 11.1 °F 17.1 °F 92% 30.25 in 5.0 mi SW 5.8 mph - 0.01 in   Overcast